Flag for Bahamas Weather past 2 weeks in Nassau, Bahamas

Now
82 °F

Passing clouds.


Feels Like: 88 °F
Forecast: 82 / 88 °F
Wind: 5 mph from Southeast

Location: Nassau Airport

Current Time: Jul 7, 2015 at 1:39:56 AM

Latest Report: Jul 7, 2015 at 1:00 AM


Visibility: 6 mi

Pressure: 30.14 "Hg

Humidity: 74%

Dew point: 73 °F

Location of NassauLocation

Historic Weather in Nassau — Graph

°F

Nassau temperature yesterday

Maximum temperature yesterday: 90 °F (at 5:00 PM)
Minimum temperature yesterday: 81 °F (at 7:00 AM)
Average temperature yesterday: 86 °F

Past Weeks' High & Low Weather Summary

 TemperatureHumidityPressure
High91 °F (Jun 23, 2:00 PM)100% (Jul 6, 11:00 AM)30.28 "Hg (Jul 6, 11:00 AM)
Low72 °F (Jun 26, 5:00 AM)46% (Jun 30, 12:00 PM)30.06 "Hg (Jun 28, 5:00 AM)
Average85 °F72%30.13 "Hg
* Reported Jun 22 1:04 AM — Jul 7 1:00 AM, Nassau, Weather by CustomWeather, © 2015

Note: Actual official high and low records may vary slightly from our data, if they occured in-between our weather recording intervals... More about our weather records

Advertising

Nassau weather history for previous 24 hours

 ConditionsComfort  
Time TempWeatherWind HumidityBarometerVisibility
1:00 AM
Tue, Jul 7
82 °FPassing clouds.5 mph74%30.14 "Hg6 mi
12:00 AM82 °FPassing clouds.7 mph74%30.16 "Hg6 mi
11:00 PM
Mon, Jul 6
84 °FPassing clouds.5 mph79%30.15 "HgN/A
10:00 PM82 °FPassing clouds.5 mph79%30.15 "Hg6 mi
9:00 PM84 °FHaze.3 mph74%30.15 "Hg6 mi
8:00 PM86 °FHaze.6 mph75%30.14 "Hg6 mi
7:00 PM86 °FHaze.8 mph66%30.15 "Hg6 mi
6:00 PM88 °FScattered clouds.7 mph62%30.14 "Hg6 mi
5:00 PM90 °FScattered clouds.7 mph67%30.15 "Hg6 mi
4:00 PM88 °FPartly sunny.8 mph62%30.15 "Hg6 mi
3:00 PM88 °FPartly sunny.9 mph66%30.17 "Hg6 mi
2:00 PM88 °FScattered clouds.12 mph70%30.16 "HgN/A
1:00 PM88 °FHaze.N/A62%30.16 "HgN/A
12:00 PM88 °FHaze.13 mph59%30.16 "HgN/A
11:00 AM88 °FScattered clouds.12 mph100%30.28 "HgN/A
10:00 AM86 °FScattered clouds.N/A70%30.18 "HgN/A
9:00 AM84 °FHaze.10 mph70%30.19 "HgN/A
8:00 AM84 °FScattered clouds.6 mph79%30.18 "HgN/A
7:00 AM81 °FPassing clouds.3 mph79%30.17 "HgN/A
5:00 AM82 °FPassing clouds.5 mph79%30.16 "HgN/A
Weather by CustomWeather, © 2015

See weather overviewHow to use our weather pages